Tracking 17265 objects as of 4-September-2015
HD Live streaming from Space Station

Track Soyuz TMA-18M
and Space Station

SPOT 2

Track SPOT 2 now!
10-day predictions
SPOT 2 is classified as:


NORAD ID: 20436
Int'l Code: 1990-005A
Perigee: 578.0 km
Apogee: 785.9 km
Inclination: 98.7 °
Period: 98.2 minutes
Semi major axis: 7052 km
RCS: 6.4022 m2 (large)
Launch date: January 22, 1990
Source: France (FR)

Nearing retirement; earth imaging for cartography, defence, agriculture, identifying cadastral parcels, urban planning, telecommunications, the environment, disaster management and mitigation and renewable resources.
Your satellite tracking list
Your tracking list is empty





NASA's NSSDC Master Catalog

Two Line Element Set (TLE):
1 20436U 90005A   15245.88162088 +.00000519 +00000-0 +90977-4 0  9998
2 20436 098.7170 106.1743 0147395 126.0672 235.4284 14.65709887337325

Source of the keplerian elements: AFSPC

N2YO: 431